Tracking 19242 objects as of 19-Sep-2018
HD Live streaming from Space Station
objects crossing your sky now

FENGYUN 1C DEB

Track FENGYUN 1C DEB now!
10-day predictions


NORAD ID: 31003
Int'l Code: 1999-025BCV
Perigee: 824.6 km
Apogee: 896.9 km
Inclination: 99.0 °
Period: 102.0 minutes
Semi major axis: 7231 km
RCS: 0.0252 m2 (small)
Launch date: May 10, 1999
Source: People's Republic of China (PRC)
Launch site: Taiyaun Space Center, China (TSC)

Note: This is SATELLITE DEBRIS
aabbcc
Your satellite tracking list
Your tracking list is empty




NASA's NSSDC Master Catalog

Two Line Element Set (TLE):
1 31003U 99025BCV 18261.58647642 +.00000354 +00000-0 +21660-3 0  9992
2 31003 099.0195 298.4876 0049979 158.6150 201.7124 14.11691344591354
Source of the keplerian elements: AFSPC